Change the Weather History Date:

Wednesday, November 7, 2012

  Actual Average Record
Temperature  
Mean Temperature 35 °F -  
Max Temperature 42 °F 38 °F 69 °F (1999)
Min Temperature 28 °F 19 °F -7 °F (1936)
Degree Days  
Heating Degree Days 30    
Moisture  
Dew Point 36 °F    
Average Humidity 95    
Maximum Humidity 100    
Minimum Humidity 81    
Precipitation  
Precipitation 0.00 in - - ()
Sea Level Pressure  
Sea Level Pressure 29.95 in    
Wind  
Wind Speed 7 mph (SSE)    
Max Wind Speed 18 mph    
Max Gust Speed 23 mph    
Visibility 9 miles    
Events Fog , Rain    
Averages and records for this station are not official NWS values.
T = Trace of Precipitation, MM = Missing Value Source: NWS Daily Summary

Daily Weather History Graph

Daily Weather History Graph

Search for Another Location

Airport or City:

Trip Planner

Search our weather history database for the weather conditions in past years. The results will help you decide how hot, cold, wet, or windy it might be!

Date:

Astronomy

Nov. 07, 2012 Rise Set
Actual Time 7:24 AM CST 4:57 PM CST
Civil Twilight 6:51 AM CST 5:31 PM CST
Nautical Twilight 6:13 AM CST 6:08 PM CST
Astronomical Twilight 5:36 AM CST 6:45 PM CST
Moon No Moon Rise 1:38 PM CST (11/7)
Length of Visible Light 10h 40m
Length of Day
9h 32m
Last Quarter, 43% of the Moon is Illuminated
Nov 7
Last Quarter
Nov 13
New
Nov 20
First Quarter
Nov 28
Full
Dec 6
Last Quarter

Hourly Weather History & Observations

Time (CST) Temp. Windchill Dew Point Humidity Pressure Visibility Wind Dir Wind Speed Gust Speed Precip Events Conditions
12:14 AM 39.2 °F 33.6 °F 37.4 °F 93% 30.02 in 10.0 mi NNW 8.1 mph - N/A   Overcast
12:34 AM 39.2 °F 35.0 °F 37.4 °F 93% 30.02 in 10.0 mi North 5.8 mph - N/A   Overcast
12:54 AM 37.4 °F 32.8 °F 37.4 °F 100% 30.02 in 10.0 mi NNW 5.8 mph - N/A   Overcast
1:14 AM 37.4 °F 33.8 °F 37.4 °F 100% 30.02 in 10.0 mi NW 4.6 mph - N/A   Overcast
1:34 AM 37.4 °F 33.8 °F 37.4 °F 100% 30.03 in 10.0 mi NW 4.6 mph - N/A   Overcast
1:54 AM 37.4 °F 32.1 °F 35.6 °F 93% 30.03 in 10.0 mi WNW 6.9 mph - N/A   Overcast
2:14 AM 37.4 °F 32.8 °F 35.6 °F 93% 30.04 in 10.0 mi NW 5.8 mph - N/A   Overcast
2:54 AM 35.6 °F 30.7 °F 33.8 °F 93% 30.04 in 10.0 mi NW 5.8 mph - N/A   Clear
3:14 AM 33.8 °F 28.6 °F 33.8 °F 100% 30.05 in 10.0 mi NW 5.8 mph - N/A   Clear
3:34 AM 33.8 °F 29.6 °F 33.8 °F 100% 30.04 in 10.0 mi NW 4.6 mph - N/A   Clear
3:53 AM 33.8 °F 29.6 °F 33.8 °F 100% 30.04 in 10.0 mi West 4.6 mph - N/A   Clear
4:34 AM 33.8 °F 30.8 °F 33.8 °F 100% 30.04 in 10.0 mi WNW 3.5 mph - N/A   Clear
4:53 AM 32.0 °F - 32.0 °F 100% 30.05 in 10.0 mi Calm Calm - N/A   Clear
5:14 AM 30.2 °F - 30.2 °F 100% 30.05 in 5.0 mi Calm Calm - N/A   Clear
5:34 AM 32.0 °F - 30.2 °F 93% 30.04 in 0.8 mi Calm Calm - N/A   Mist
5:54 AM 30.2 °F - 30.2 °F 100% 30.05 in 1.0 mi Calm Calm - N/A   Mist
6:14 AM 30.2 °F - 30.2 °F 100% 30.05 in 1.0 mi Calm Calm - N/A   Mist
6:34 AM 28.4 °F - 28.4 °F 100% 30.04 in 0.5 mi Calm Calm - N/A Fog Light Freezing Fog
6:54 AM 28.4 °F - 28.4 °F 100% 30.04 in 0.5 mi Calm Calm - N/A Fog Light Freezing Fog
7:14 AM 28.4 °F - 28.4 °F 100% 30.04 in 0.8 mi Calm Calm - N/A   Mostly Cloudy
7:34 AM 28.4 °F - 28.4 °F 100% 30.05 in 0.5 mi Calm Calm - N/A Fog Light Freezing Fog
7:54 AM 28.4 °F - 28.4 °F 100% 30.05 in 1.8 mi Calm Calm - N/A   Mostly Cloudy
8:14 AM 30.2 °F - 30.2 °F 100% 30.05 in 7.0 mi Calm Calm - N/A   Clear
8:34 AM 30.2 °F - 30.2 °F 100% 30.06 in 10.0 mi Calm Calm - N/A   Clear
8:54 AM 32.0 °F - 32.0 °F 100% 30.06 in 10.0 mi Calm Calm - N/A   Clear
9:14 AM 32.0 °F - 32.0 °F 100% 30.06 in 10.0 mi Calm Calm - N/A   Scattered Clouds
9:34 AM 33.8 °F 30.8 °F 33.8 °F 100% 30.05 in 7.0 mi SE 3.5 mph - N/A   Mostly Cloudy
9:54 AM 33.8 °F 29.6 °F 33.8 °F 100% 30.05 in 10.0 mi SE 4.6 mph - N/A   Scattered Clouds
10:14 AM 33.8 °F 30.8 °F 33.8 °F 100% 30.05 in 10.0 mi SE 3.5 mph - N/A   Scattered Clouds
10:34 AM 35.6 °F 32.8 °F 35.6 °F 100% 30.05 in 10.0 mi SE 3.5 mph - N/A   Mostly Cloudy
10:54 AM 37.4 °F 32.8 °F 37.4 °F 100% 30.04 in 10.0 mi SE 5.8 mph - N/A   Mostly Cloudy
11:13 AM 35.6 °F 29.9 °F 35.6 °F 100% 30.04 in 10.0 mi SSE 6.9 mph - N/A   Mostly Cloudy
11:34 AM 37.4 °F 32.1 °F 37.4 °F 100% 30.03 in 10.0 mi SE 6.9 mph - N/A   Overcast
11:54 AM 37.4 °F 31.4 °F 37.4 °F 100% 30.02 in 10.0 mi SE 8.1 mph - N/A   Overcast
12:14 PM 39.2 °F 34.2 °F 37.4 °F 93% 30.01 in 10.0 mi SE 6.9 mph - N/A   Overcast
12:34 PM 39.2 °F 33.6 °F 37.4 °F 93% 29.99 in 10.0 mi SSE 8.1 mph - N/A   Mostly Cloudy
12:54 PM 39.2 °F 32.5 °F 37.4 °F 93% 29.97 in 10.0 mi SSE 10.4 mph - N/A   Scattered Clouds
1:14 PM 39.2 °F 31.6 °F 37.4 °F 93% 29.96 in 10.0 mi SSE 12.7 mph - N/A   Scattered Clouds
1:34 PM 39.2 °F 32.0 °F 37.4 °F 93% 29.96 in 10.0 mi SSE 11.5 mph - N/A   Mostly Cloudy
1:54 PM 39.2 °F 32.5 °F 37.4 °F 93% 29.96 in 10.0 mi SSE 10.4 mph - N/A   Mostly Cloudy
2:14 PM 39.2 °F 31.2 °F 37.4 °F 93% 29.93 in 10.0 mi SSE 13.8 mph - N/A   Mostly Cloudy
2:34 PM 41.0 °F 32.8 °F 39.2 °F 93% 29.92 in 10.0 mi SSE 16.1 mph - N/A   Mostly Cloudy
2:54 PM 41.0 °F 33.5 °F 39.2 °F 93% 29.93 in 10.0 mi SSE 13.8 mph - N/A   Mostly Cloudy
3:14 PM 41.0 °F 33.9 °F 39.2 °F 93% 29.92 in 10.0 mi SSE 12.7 mph - N/A   Mostly Cloudy
3:38 PM 41.0 °F 33.1 °F 39.2 °F 93% 29.90 in 10.0 mi SSE 15.0 mph - N/A   Overcast
3:54 PM 41.0 °F 33.9 °F 39.2 °F 93% 29.90 in 10.0 mi SSE 12.7 mph - N/A   Mostly Cloudy
4:14 PM 41.0 °F 33.5 °F 39.2 °F 93% 29.89 in 10.0 mi SE 13.8 mph - N/A   Scattered Clouds
4:33 PM 41.0 °F 34.3 °F 39.2 °F 93% 29.89 in 10.0 mi SE 11.5 mph - N/A   Scattered Clouds
4:54 PM 39.2 °F 31.2 °F 37.4 °F 93% 29.88 in 10.0 mi SE 13.8 mph - N/A   Scattered Clouds
5:14 PM 39.2 °F 32.5 °F 37.4 °F 93% 29.88 in 10.0 mi SE 10.4 mph - N/A   Scattered Clouds
5:33 PM 39.2 °F 31.2 °F 37.4 °F 93% 29.86 in 10.0 mi SE 13.8 mph - N/A Rain Rain
5:54 PM 39.2 °F 30.5 °F 39.2 °F 100% 29.84 in 10.0 mi SE 16.1 mph - N/A   Light Drizzle
6:14 PM 39.2 °F 29.8 °F 37.4 °F 93% 29.82 in 10.0 mi SE 18.4 mph - N/A   Mostly Cloudy
6:33 PM 39.2 °F 30.2 °F 37.4 °F 93% 29.81 in 10.0 mi SE 17.3 mph - N/A   Scattered Clouds
6:54 PM 39.2 °F 30.2 °F 37.4 °F 93% 29.81 in 10.0 mi SE 17.3 mph - N/A   Scattered Clouds
7:14 PM 39.2 °F 29.8 °F 37.4 °F 93% 29.80 in 10.0 mi SSE 18.4 mph 23.0 mph N/A   Scattered Clouds
7:33 PM 39.2 °F 30.2 °F 37.4 °F 93% 29.80 in 10.0 mi SSE 17.3 mph - N/A   Clear
7:54 PM 39.2 °F 30.5 °F 37.4 °F 93% 29.79 in 10.0 mi SSE 16.1 mph 21.9 mph N/A   Clear
8:14 PM 39.2 °F 32.0 °F 37.4 °F 93% 29.80 in 10.0 mi SSE 11.5 mph - N/A   Clear
8:33 PM 39.2 °F 32.0 °F 37.4 °F 93% 29.81 in 10.0 mi SSE 11.5 mph - N/A   Clear
8:54 PM 39.2 °F 32.5 °F 37.4 °F 93% 29.82 in 10.0 mi SE 10.4 mph - N/A   Clear
9:14 PM 39.2 °F 32.5 °F 37.4 °F 93% 29.81 in 10.0 mi SSE 10.4 mph - N/A   Clear
9:33 PM 39.2 °F 31.6 °F 37.4 °F 93% 29.80 in 10.0 mi SSE 12.7 mph - N/A   Clear
9:54 PM 39.2 °F 31.2 °F 37.4 °F 93% 29.79 in 10.0 mi SSE 13.8 mph - N/A   Clear
10:14 PM 39.2 °F 30.5 °F 37.4 °F 93% 29.78 in 10.0 mi SSE 16.1 mph - N/A   Clear
10:33 PM 41.0 °F 33.1 °F 37.4 °F 87% 29.78 in 10.0 mi SSE 15.0 mph - N/A   Clear
10:54 PM 41.0 °F 32.8 °F 37.4 °F 87% 29.77 in 10.0 mi SSE 16.1 mph - N/A   Light Drizzle
11:14 PM 42.8 °F 34.5 °F 37.4 °F 81% 29.75 in 10.0 mi SSE 18.4 mph - N/A   Scattered Clouds
11:34 PM 42.8 °F 34.5 °F 39.2 °F 87% 29.75 in 10.0 mi SSE 18.4 mph 23.0 mph N/A Rain Light Rain
11:54 PM 42.8 °F 34.8 °F 39.2 °F 87% 29.75 in 10.0 mi SSE 17.3 mph - N/A Rain Light Rain